Dewpoint
29 24 28 29 28 28 28 26 24 25 27 28 29 29 29 31 29 28 28 34 37 39 41 45 48 49 51 52 53 54 54 54 55 53 53 53 53 52 52 52 52 52 49 47
29 26 24 26 31 31 31 29 24 25 24 29 29 30 31 29 28 29 30 29 37 39 41 51 51 51 51 51 52 51 53 50 50 50 50 50 49 49 49 48 48 47 46 45
27 31 31 30 31 29 29 31 28 26 27 29 30 30 30 30 28 28 30 31 34 39 43 51 50 52 52 51 51 50 49 49 49 49 48 48 47 46 45 45 45 44 44 43
27 28 26 31 33 32 30 30 30 27 27 28 27 29 29 28 27 30 31 32 40 48 50 50 51 50 50 50 50 50 49 49 49 48 47 46 45 45 44 44 43 44 44 43
30 27 28 31 32 32 31 29 31 27 25 24 25 29 28 29 27 29 34 38 50 49 50 50 49 49 49 49 49 48 47 47 47 47 45 44 43 43 43 43 43 42 40 39
32 29 22 28 31 33 32 29 31 29 29 27 29 27 27 31 38 39 45 51 50 48 49 48 49 49 48 48 47 46 46 45 45 45 44 43 43 43 43 42 40 36 32 33
32 31 30 33 37 38 31 30 33 32 31 31 28 31 30 37 42 46 50 50 49 49 48 47 48 48 47 46 45 45 45 44 43 44 43 43 42 41 38 37 34 31 29 29
32 30 26 38 39 32 35 35 35 34 33 33 32 33 34 38 45 49 49 49 49 48 47 47 46 46 45 43 43 43 42 42 42 41 41 41 38 35 34 33 31 29 28 27
34 34 38 40 39 43 42 40 39 40 40 38 36 39 42 44 47 49 49 49 48 47 46 45 45 44 42 41 42 42 41 37 34 34 34 35 34 32 31 30 30 29 27 26
35 35 36 38 40 40 42 40 39 41 40 41 39 42 42 44 44 44 45 46 45 45 43 42 42 41 41 40 36 31 29 29 29 29 27 27 27 28 29 29 29 29 27 25
35 34 35 35 37 38 38 42 41 42 40 40 43 43 42 43 42 42 41 39 38 37 38 38 37 36 33 29 28 26 25 26 27 26 24 23 24 22 24 27 29 28 27 26
31 34 33 32 32 37 37 40 42 42 39 41 42 41 41 41 40 36 32 29 28 27 26 25 25 25 24 25 25 25 24 25 26 26 25 23 23 26 28 26 26 26 26 25
34 35 35 35 39 41 40 40 40 40 41 40 41 41 39 30 26 26 24 24 23 24 25 26 26 27 27 27 27 27 26 27 27 27 27 27 28 28 25 27 29 28 27 26
37 36 38 40 38 41 39 35 34 35 36 36 34 31 27 25 24 23 22 23 25 25 25 26 27 28 28 28 28 28 27 27 26 26 25 25 25 25 25 24 23 25 27 27
39 38 37 40 39 38 35 33 29 26 25 24 25 23 22 21 22 22 23 24 24 25 25 25 24 25 27 27 26 25 24 24 24 24 23 23 23 23 22 22 21 20 20 21
37 38 39 38 37 34 32 30 27 24 23 22 22 22 22 22 22 22 22 23 22 21 22 22 23 24 25 24 23 23 23 23 23 22 21 20 19 18 17 17 17 17 16 16
37 36 36 35 34 31 29 27 25 23 23 22 22 22 21 21 20 20 20 20 20 20 21 21 21 23 23 22 22 19 18 18 18 17 16 16 15 15 15 14 13 13 11 9
34 35 33 32 28 26 25 25 24 23 22 22 22 21 20 18 17 17 18 18 17 17 18 20 20 18 17 17 16 16 17 16 16 16 14 13 13 14 11 11 11 11 11 12
31 30 29 28 27 26 25 24 23 23 22 22 20 18 18 18 19 18 18 16 14 13 15 17 19 17 16 16 14 14 13 13 12 11 11 8 7 8 7 7 5 2 4 5
28 27 27 26 26 25 23 23 23 22 22 21 20 18 17 18 17 16 15 13 13 11 12 14 14 13 12 12 12 10 9 8 8 5 4 3 -2 -3 -2 -1 0 -1 -2 0
25 25 25 24 23 23 23 22 22 21 21 20 18 17 16 17 17 15 12 10 9 11 12 13 12 10 9 8 8 7 5 4 2 -1 -4 -10 -10 -9 -12 -15 -12 -13 -8 -6
24 23 23 22 22 22 23 23 21 20 18 18 18 17 15 14 13 12 12 9 10 11 10 7 6 4 5 5 5 3 2 0 -3 -4 -8 -12 -16 -18 -18 -16 -14 -13 -14 -13
23 22 22 20 20 20 21 20 20 20 18 18 18 18 16 16 14 9 6 8 9 7 5 5 2 1 -1 -1 -4 -5 -6 -7 -9 -12 -17 -22 -23 -23 -22 -22 -19 -19 -20 -17
22 22 22 22 21 19 17 18 18 17 16 16 16 15 12 10 9 10 9 8 6 4 3 2 0 -1 -6 -7 -9 -11 -12 -14 -18 -21 -18 -20 -27 -26 -24 -25 -22 -22 -22 -20
22 22 21 20 18 17 17 18 16 16 15 14 13 12 12 11 9 10 9 7 6 1 -1 -3 -3 -6 -11 -15 -14 -15 -19 -21 -23 -24 -25 -27 -26 -26 -26 -26 -27 -26 -24 -24
21 20 20 20 19 18 17 16 13 13 11 10 10 10 9 9 7 6 5 2 0 -2 -4 -8 -11 -15 -17 -16 -21 -22 -20 -16 -22 -22 -26 -26 -26 -23 -27 -25 -27 -27 -27 -26
18 18 17 16 16 16 15 13 11 10 10 8 7 7 5 4 2 1 -2 -4 -6 -9 -15 -20 -17 -13 -16 -21 -20 -21 -20 -22 -23 -23 -29 -28 -28 -30 -31 -29 -29 -28 -27 -26
Lifted_Index
3 3 2 1 1 1 2 2 2 3 3 2 1 0 0 0 -0 0 1 2 2 1 -0 -1 -1 -1 -1 -1 -1 -1 -2 -2 -1 -2 -2 -2 -2 -2 -2 -2 -2 -1 -1 -1
2 2 1 1 1 1 2 2 2 2 2 2 1 1 0 0 0 0 1 2 2 1 0 -0 -1 -1 -1 -1 -1 -1 -2 -2 -2 -2 -2 -2 -2 -1 -1 -1 -1 -1 -0 -0
1 1 1 1 2 2 1 1 1 1 2 2 1 1 1 0 0 1 1 1 1 1 1 -0 -1 -1 -1 -1 -1 -1 -2 -2 -2 -2 -2 -2 -1 -1 -1 -0 -0 0 1 1
1 0 0 1 2 2 1 1 1 1 1 1 1 1 1 1 1 1 1 1 1 1 1 0 -0 -0 -0 -1 -1 -2 -2 -2 -2 -1 -1 -1 -0 -0 0 1 1 2 2 2
0 0 1 1 2 2 1 1 1 1 1 1 1 1 1 1 1 1 1 1 1 1 1 0 -0 -1 -1 -1 -2 -2 -2 -2 -1 -1 -0 -0 0 1 1 2 2 3 3 4
1 1 1 1 1 1 1 1 1 0 0 1 1 1 1 1 1 1 0 -0 -0 0 0 -0 -1 -1 -1 -2 -2 -2 -2 -2 -1 0 1 1 1 2 2 3 4 4 5 5
1 1 1 1 0 0 1 1 1 1 1 1 1 1 1 1 1 0 -0 -1 -1 -0 -1 -1 -1 -2 -2 -2 -2 -2 -1 -0 1 2 2 3 3 3 4 4 5 6 6 6
1 1 1 0 -0 0 1 1 1 1 1 1 1 0 1 1 1 -0 -1 -1 -1 -1 -2 -2 -2 -2 -2 -1 -1 0 1 2 3 4 4 4 5 5 5 6 6 7 7 8
2 1 1 1 0 0 0 0 0 0 0 0 0 0 0 0 0 -0 -1 -2 -2 -2 -2 -2 -2 -1 -0 1 2 2 3 4 5 5 6 6 6 7 7 7 8 8 9 9
1 1 1 1 1 1 1 1 0 0 0 -0 -0 -0 -0 -0 -0 -1 -1 -2 -2 -1 -1 -1 -0 1 2 3 3 4 5 6 6 7 7 7 8 8 9 9 10 10 11 12
1 0 0 1 1 1 1 1 1 1 0 0 -0 -0 -0 -0 -0 -1 -1 -1 -1 -0 0 1 1 2 3 4 5 5 6 7 7 7 8 8 9 10 11 12 13 14 14 15
1 0 0 0 1 1 1 1 1 1 0 0 0 0 0 0 0 0 0 0 0 1 1 2 2 3 4 5 6 6 6 7 7 8 9 9 10 11 13 15 16 17 17 17
1 1 0 0 0 0 1 1 1 1 0 0 0 1 1 1 0 1 1 1 1 2 2 3 3 5 6 7 8 8 8 8 9 10 10 11 12 13 14 16 17 18 18 18
2 2 1 0 -0 0 1 1 1 1 1 1 1 1 1 1 1 1 2 2 3 3 3 4 5 7 9 10 10 10 10 11 12 13 13 14 15 15 16 16 17 17 18 19
3 3 1 0 -0 0 0 0 1 1 1 1 2 2 1 1 1 2 3 4 4 5 6 7 7 9 12 13 12 12 13 14 15 15 16 16 17 17 17 17 17 18 19 20
3 3 2 1 0 0 0 0 0 1 1 1 2 2 1 1 2 3 5 6 6 7 8 9 10 12 14 14 14 15 15 16 17 17 17 17 18 18 18 19 19 19 20 21
2 2 1 1 0 0 1 1 1 1 1 1 1 2 2 2 3 4 7 9 9 9 11 12 13 15 16 16 17 17 17 18 18 18 18 18 19 19 20 20 20 21 22 23
1 1 1 1 1 1 1 1 1 1 1 1 2 2 3 4 4 6 9 11 11 11 13 15 16 17 18 18 19 19 19 19 19 19 19 20 20 21 21 21 22 23 24 25
0 0 0 1 1 1 1 1 2 2 2 3 3 4 5 7 8 10 11 12 12 13 15 18 19 19 19 20 20 20 20 20 20 21 21 21 22 22 23 24 24 25 25 26
1 1 1 1 1 1 1 2 3 3 4 5 6 6 8 10 12 13 13 13 14 16 18 20 20 20 21 21 22 21 21 21 22 22 23 23 24 25 25 26 26 26 27 27
2 2 2 1 1 2 3 5 5 6 7 9 9 10 11 12 14 15 14 14 17 20 21 21 21 22 22 23 23 23 23 24 24 24 25 25 26 26 27 27 27 26 26 26
3 3 3 3 3 4 6 8 9 10 11 11 12 12 13 14 15 15 16 17 19 22 22 22 23 23 24 25 25 25 25 25 26 26 26 26 26 26 26 26 25 25 24 24
6 6 6 6 6 7 9 11 12 13 13 14 14 14 15 15 16 17 18 20 22 23 23 24 25 26 26 26 26 27 27 26 27 27 27 27 26 25 25 24 24 23 23 23
9 9 10 10 10 10 11 13 14 14 14 15 16 17 17 17 18 19 21 22 24 24 25 26 26 27 27 27 27 27 27 27 27 26 26 25 24 24 23 23 23 23 23 22
11 12 12 12 12 12 13 14 14 15 15 16 17 18 20 20 21 22 24 25 25 26 26 27 27 28 28 27 27 27 27 26 26 25 24 23 23 23 22 22 22 22 21 21
13 13 13 13 13 14 14 14 15 15 16 17 18 20 22 23 24 25 25 26 26 26 27 27 27 27 27 27 27 26 25 25 24 23 23 22 22 22 21 21 21 20 20 20
14 14 14 14 15 15 15 15 15 16 17 19 20 21 23 24 25 26 26 26 27 27 27 27 27 27 27 26 26 25 24 24 23 22 22 22 22 21 21 20 20 19 19 18